Back to catalog

STARLINK-35507

AliveCommunicationsVLEO
NORAD 66327·PAYLOAD·🇺🇸 United States

Launched Nov 6, 2025 from Cape Canaveral Space Force Station

Loading…

Next Passes (next 24 hours)

TLE

FreshSource: CelesTrak SupGP

Epoch: Sep 14, 2026, 14:35 UTC

1 66327C 25253J   26257.60812500 -.00033199  00000+0 -12025-2 0  2570
2 66327  43.0030 225.3616 0001513 267.4577 314.5053 15.27595173    16

Track STARLINK-35507 in real time with AllMySat

Download on the App Store